Regional Weather Roundup
Issued by NWS

Home | Current Version | Previous Version | Graphics & Text | Print | Product List | Glossary On
Versions: 1 2 3 4 5 6 7 8 9 10 11 12 13 14 15 16 17 18 19 20 21 22 23 24 25 26 27 28 29 30 31 32 33 34 35 36 37 38 39 40 41 42 43 44 45 46 47 48 49 50
225
ASUS43 KIND 270709
RWRIN

WEATHER ROUNDUP FOR INDIANA
NATIONAL WEATHER SERVICE INDIANAPOLIS IN
300 AM EDT FRI MAY 27 2016

NOTE: "FAIR" INDICATES FEW OR NO CLOUDS BELOW 12,000 FEET WITH NO
SIGNIFICANT WEATHER AND/OR OBSTRUCTIONS TO VISIBILITY.

* - STATION DOES NOT REPORT WEATHER SUCH AS PRECIPITATION OR FOG.

+ - STATION NOT QUALITY CONTROLLED BY THE NATIONAL WEATHER SERVICE.
    USE DATA WITH CAUTION...ESPECIALLY DEWPOINT AND RELATIVE
    HUMIDITY OBSERVATIONS.

INZ001>003-010>013-019-020-270800-
NORTHWEST INDIANA

CITY           SKY/WX    TMP DP  RH WIND       PRES   REMARKS
GARY /AIRPORT/ MOCLDY    71  71  98 S5        29.92R
KNOX *+        CLOUDY    66  59  77 S6        29.94R
LA PORTE +     CLOUDY    69  68  96 SW6       29.95R
MICHIGAN CITY+ CLOUDY    68  64  88 S7        29.93R
MONTICELLO +   CLOUDY    66  61  83 S7        29.95R
RENSSELAER +   CLOUDY    66  64  94 S12       29.95R
VALPARAISO     CLOUDY    68  64  87 SW8       29.94R

$$

LMZ046-743>745-270800-
SOUTHERN LAKE MICHIGAN

STATION/POSITION TIME  TEMP    WIND        PRES    WAVE
                       AIR SEA DIR/SP/G            HT
                 (UTC) (F)     (DEG/KT/KT) (MB)    (FT)
BURNS HARBOR     0600   71     190/ 13/ 18 1012.9S
MICHIGAN CITY    0600   71     180/ 10/ 13   N/A
5NW MICH CITY    0700   65 59  210/  8/  8   N/A     1

$$

INZ004-005-014>016-021>024-270800-
NORTH CENTRAL INDIANA

CITY           SKY/WX    TMP DP  RH WIND       PRES   REMARKS
GOSHEN         CLOUDY    66  60  81 S5        29.95R
LOGANSPORT +   CLOUDY    64  61  88 S8        29.97S
PERU/GRISSOM   CLOUDY    65  64  94 SW8       29.96R
ROCHESTER +    CLOUDY    68  64  88 SW7       29.96R
SOUTH BEND     CLOUDY    67  63  87 SW7       29.94R
WARSAW +       CLOUDY    66  63  88 SW3       29.96R

$$

INZ006>009-017-018-025>027-270800-
NORTHEAST INDIANA

CITY           SKY/WX    TMP DP  RH WIND       PRES   REMARKS
ANGOLA *+        N/A     64  55  72 CALM      29.95S
AUBURN +       CLEAR     64  59  82 CALM      29.97R
FORT WAYNE     CLOUDY    64  60  87 S5        29.97R
HUNTINGTON +   CLOUDY   N/A N/A N/A SW5       29.97R

$$

INZ028-029-035-036-043>045-051>053-270800-
WEST CENTRAL INDIANA

CITY           SKY/WX    TMP DP  RH WIND       PRES   REMARKS
CRAWFORDSVL +  CLOUDY    63  63 100 SW7       29.98R
GREENCASTLE +  CLOUDY    63  63 100 S3        29.99S
LAFAYETTE      CLOUDY    65  62  90 SW5       29.96R
TERRE HAUTE    CLOUDY    66  63  90 S3        29.97S

$$

INZ030>032-037>040-046>048-054>057-064-065-270800-
CENTRAL INDIANA

CITY           SKY/WX    TMP DP  RH WIND       PRES   REMARKS
CP ATTERBURY + CLOUDY    63  61  94 S3        30.00S
FISHERS *+     CLOUDY    63  63 100 S3        29.99
FRANKFORT +      N/A     65  65 100 CALM      29.99S
GREENWOOD *+   CLOUDY    64  63  94 SE3       30.00
INDIANAPOLIS   CLOUDY    66  62  87 S8        29.97R
-EAGLE CREEK   CLOUDY    66  61  84 SE3       29.98R
KOKOMO *+      PTCLDY    66  59  77 SW8       29.98R
MARION +       PTCLDY    64  61  91 SW5       29.99R
SHELBYVILLE    CLOUDY    66  63  90 S8        29.99R
ZIONSVILLE +   CLOUDY    65  60  85 SW7       29.99R

$$

INZ033-034-041-042-049-050-058-059-270800-
EAST CENTRAL INDIANA

CITY           SKY/WX    TMP DP  RH WIND       PRES   REMARKS
MUNCIE         PTCLDY    66  61  84 S5        29.99R

$$

INZ060-061-067>069-081>083-085>088-270800-
SOUTHWEST INDIANA

CITY           SKY/WX    TMP DP  RH WIND       PRES   REMARKS
EVANSVILLE     CLOUDY    66  62  87 SE3       29.99R
HUNTINGBURG *+ CLOUDY    66  63  88 S5        29.99F
WASHINGTON +   MOCLDY    65  65 100 SE5       29.98S

$$

INZ062-063-066-070>080-084-089>092-270800-
SOUTH CENTRAL AND SOUTHEAST INDIANA

CITY           SKY/WX    TMP DP  RH WIND       PRES   REMARKS
BEDFORD +      CLOUDY    64  64 100 SE3       29.99S
BLOOMINGTON    CLOUDY    66  62  87 S6        29.99R
MADISON *+     PTCLDY    63  61  94 CALM      30.04S
NORTH VERNON + PTCLDY   N/A N/A N/A CALM      30.02R
SEYMOUR +      MOCLDY    64  64 100 CALM      30.01R FOG

$$





USA.gov is the U.S. government's official web portal to all federal, state and local government web resources and services.